Regional Weather Roundup
Issued by NWS Sioux Falls, SD

Home | Current Version | Previous Version | Text Only | Print | Product List | Glossary Off
Versions: 1 2 3 4 5 6 7 8 9 10 11 12 13 14 15 16 17 18 19 20 21 22 23 24 25 26 27 28 29 30 31 32 33 34 35 36 37 38 39 40 41 42 43 44 45 46 47 48 49 50

000
ASUS43 KFSD 272210
RWRFSD

WEATHER ROUNDUP FOR SE SOUTH DAKOTA/SW MINNESOTA/NW IOWA
NATIONAL WEATHER SERVICE SIOUX FALLS SD
500 PM CDT TUE SEP 27 2016

NOTE: "FAIR" INDICATES FEW OR NO CLOUDS BELOW 12,000 FEET WITH NO
SIGNIFICANT WEATHER AND OR OBSTRUCTIONS TO VISIBILITY.


SDZ038>040-050-052>070-272300-
SOUTHEAST SOUTH DAKOTA

CITY           SKY/WX    TMP DP  RH WIND       PRES   REMARKS
BROOKINGS      SUNNY     69  40  34 NW18      29.86S
CHAMBERLAIN    SUNNY     80  46  29 NW10      29.91S
HURON          SUNNY     77  41  27 NW15      29.87F
MADISON        FAIR      68  41  37 NW20G25   29.88S
MITCHELL       SUNNY     79  41  25 N13G21    29.88S
SIOUX FALLS    MOSUNNY   75  44  33 NW15      29.86F
WINNER         FAIR      83  43  24 NW18G26   29.91F
YANKTON        SUNNY     75  45  33 NW16      29.87S
$$

MNZ071-072-080-081-089-090-097-098-272300-
SOUTHWEST MINNESOTA

CITY           SKY/WX    TMP DP  RH WIND       PRES   REMARKS
FAIRMONT       MOSUNNY   69  31  24 NW13G24   29.81F
JACKSON        SUNNY     70  23  17 NW17G24   29.83S
LUVERNE        SUNNY     70  36  28 NW14G22   29.87R
MARSHALL       CLOUDY    70  33  25 NW23      29.83
MONTEVIDEO     CLOUDY    68  32  26 N13G22    29.85S
PIPESTONE      SUNNY     70  30  23 NW16G26   29.87S
REDWOOD FALLS  CLOUDY    66  32  28 NW16G24   29.82S
TRACY          SUNNY     71  31  22 NW22G28   29.84S
WINDOM         SUNNY     70  21  16 NW22G29   29.82S
WORTHINGTON    SUNNY     68  39  34 NW23G29   29.85S
$$

IAZ001>003-012>014-020>022-031-032-NEZ013-014-SDZ071-272300-
NORTHWEST IOWA

CITY           SKY/WX    TMP DP  RH WIND       PRES   REMARKS
CHEROKEE       SUNNY     72  42  34 W14G20    29.85F
DENISON        SUNNY     73  43  33 NW15G23   29.84F
ESTHERVILLE    MOSUNNY   71  34  25 NW20G25   29.81F
LE MARS        SUNNY     75  45  33 NW10G21   29.86F
ORANGE CITY    SUNNY     73  45  35 NW16G22   29.86F
SHELDON        SUNNY     72  43  35 NW15G26   29.84F
SIOUX CITY     SUNNY     76  46  34 NW14      29.86F
SPENCER        SUNNY     72  41  32 NW21G31   29.83F
STORM LAKE     SUNNY     72  41  33 NW17G26   29.85F
$$

ABBREVIATIONS USED IN REMARKS
   TC - TEMPERATURE IN CELSIUS
  WCI - WIND CHILL INDEX
   HX - HEAT INDEX
  VSB - VISIBILITY




USA.gov is the U.S. government's official web portal to all federal, state and local government web resources and services.